Perry, FL

12:16 PM EDT on September 30, 2016 (GMT -0400)
Perry

Weather History for K40J - December, 2013

Change the Weather History Date:

Sunday, December 22, 2013

  Actual Average (KCTY) Record (KCTY)
Temperature  
Mean Temperature 72 °F 53 °F  
Max Temperature 79 °F 65 °F 82 °F (1998)
Min Temperature 64 °F 41 °F 27 °F (2005)
Degree Days  
Heating Degree Days 0 12  
Month to date heating degree days 223  
Since 1 July heating degree days 391  
Cooling Degree Days 6 0  
Month to date cooling degree days 14  
Year to date cooling degree days 2616  
Growing Degree Days 22 (Base 50)    
Moisture  
Dew Point 68 °F    
Average Humidity 84    
Maximum Humidity 100    
Minimum Humidity 72    
Precipitation  
Precipitation 0.01 in 0.07 in 1.03 in (2006)
Month to date precipitation 1.89  
Year to date precipitation 47.73  
Sea Level Pressure  
Sea Level Pressure 30.08 in    
Wind  
Wind Speed 9 mph (South)    
Max Wind Speed 21 mph    
Max Gust Speed 30 mph    
Visibility 9 miles    
Events      
T = Trace of Precipitation, MM = Missing Value Source: NWS Daily Summary

Daily Weather History Graph

Daily Weather History Graph

Search for Another Location

Airport or City:

Trip Planner

Search our weather history database for the weather conditions in past years. The results will help you decide how hot, cold, wet, or windy it might be!

Date:

Astronomy

Dec. 22, 2013 Rise Set
Actual Time 7:26 AM EST 5:39 PM EST
Civil Twilight 7:00 AM EST 6:05 PM EST
Nautical Twilight 6:30 AM EST 6:35 PM EST
Astronomical Twilight 6:01 AM EST 7:05 PM EST
Moon 10:30 PM EST (12/22) 10:40 AM EST (12/22)
Length of Visible Light 11h 05m
Length of Day
10h 12m
Waning Gibbous, 77% of the Moon is Illuminated
Dec 22
Waning Gibbous
Dec 25
Last Quarter
Jan 1
New
Jan 7
First Quarter
Jan 15
Full

Hourly Weather History & Observations

Time (EST) Temp. Dew Point Humidity Pressure Visibility Wind Dir Wind Speed Gust Speed Precip Events Conditions
12:15 AM 71.6 °F 66.2 °F 83% 30.07 in 10.0 mi SSE 5.8 mph - N/A   Overcast
12:35 AM 71.6 °F 66.2 °F 83% 30.07 in 10.0 mi South 5.8 mph - N/A   Overcast
12:53 AM 73.0 °F 66.0 °F 79% 30.05 in - SSE 6.9 mph - N/A   Unknown
12:55 AM 71.6 °F 66.2 °F 83% 30.06 in 10.0 mi SSE 5.8 mph - N/A   Mostly Cloudy
1:15 AM 71.6 °F 66.2 °F 83% 30.07 in 10.0 mi South 8.1 mph - N/A   Mostly Cloudy
1:35 AM 71.6 °F 66.2 °F 83% 30.07 in 10.0 mi South 10.4 mph - N/A   Mostly Cloudy
1:53 AM 73.9 °F 66.0 °F 76% 30.06 in - South 9.2 mph - N/A   Unknown
1:55 AM 71.6 °F 66.2 °F 83% 30.07 in 10.0 mi South 8.1 mph - N/A   Mostly Cloudy
2:15 AM 71.6 °F 66.2 °F 83% 30.07 in 10.0 mi South 8.1 mph - N/A   Mostly Cloudy
2:35 AM 71.6 °F 66.2 °F 83% 30.07 in 10.0 mi South 9.2 mph - N/A   Scattered Clouds
2:53 AM 73.0 °F 66.9 °F 81% 30.06 in - South 10.4 mph - N/A   Unknown
2:55 AM 71.6 °F 68.0 °F 88% 30.07 in 10.0 mi South 8.1 mph - N/A   Clear
3:15 AM 71.6 °F 68.0 °F 88% 30.07 in 10.0 mi South 8.1 mph - N/A   Clear
3:35 AM 69.8 °F 66.2 °F 88% 30.07 in 10.0 mi SSE 5.8 mph - N/A   Clear
3:53 AM 69.1 °F 64.9 °F 87% 30.05 in - ESE 6.9 mph - N/A   Unknown
3:55 AM 68.0 °F 64.4 °F 88% 30.07 in 10.0 mi SE 5.8 mph - N/A   Clear
4:15 AM 66.2 °F 64.4 °F 94% 30.06 in 10.0 mi SE 5.8 mph - N/A   Clear
4:35 AM 66.2 °F 64.4 °F 94% 30.05 in 10.0 mi SE 6.9 mph - N/A   Clear
4:53 AM 68.0 °F 64.9 °F 90% 30.03 in - SSE 10.4 mph - N/A   Unknown
4:55 AM 66.2 °F 64.4 °F 94% 30.05 in 10.0 mi SSE 9.2 mph - N/A   Clear
5:15 AM 68.0 °F 64.4 °F 88% 30.05 in 10.0 mi SSE 9.2 mph - N/A   Clear
5:35 AM 68.0 °F 64.4 °F 88% 30.05 in 10.0 mi SSE 4.6 mph - N/A   Clear
5:53 AM 66.9 °F 64.0 °F 90% 30.05 in - SE 3.5 mph - N/A   Unknown
5:55 AM 66.2 °F 64.4 °F 94% 30.06 in 10.0 mi SE 3.5 mph - N/A   Clear
6:15 AM 66.2 °F 64.4 °F 94% 30.07 in 10.0 mi ESE 3.5 mph - N/A   Mostly Cloudy
6:35 AM 64.4 °F 64.4 °F 100% 30.07 in 10.0 mi Calm Calm - N/A   Scattered Clouds
6:53 AM 66.0 °F 64.0 °F 93% 30.05 in - ESE 4.6 mph - N/A   Unknown
6:55 AM 64.4 °F 64.4 °F 100% 30.06 in 7.0 mi ESE 4.6 mph - N/A   Mostly Cloudy
7:15 AM 64.4 °F 62.6 °F 94% 30.07 in 7.0 mi SE 4.6 mph - N/A   Overcast
7:35 AM 64.4 °F 64.4 °F 100% 30.07 in 7.0 mi Calm Calm - N/A   Overcast
7:53 AM 68.0 °F 64.9 °F 90% 30.05 in - SE 8.1 mph - N/A   Unknown
7:55 AM 68.0 °F 64.4 °F 88% 30.07 in 7.0 mi SE 8.1 mph - N/A   Overcast
8:15 AM 69.8 °F 68.0 °F 94% 30.07 in 10.0 mi SSE 9.2 mph - N/A   Overcast
8:35 AM 71.6 °F 69.8 °F 94% 30.07 in 10.0 mi SSE 10.4 mph - N/A   Mostly Cloudy
8:53 AM 73.9 °F 68.0 °F 82% 30.07 in - SSE 12.7 mph 20.7 mph N/A   Unknown
8:55 AM 71.6 °F 68.0 °F 88% 30.08 in 10.0 mi South 12.7 mph 18.4 mph N/A   Overcast
9:15 AM 73.4 °F 69.8 °F 88% 30.09 in 10.0 mi South 11.5 mph 18.4 mph N/A   Overcast
9:35 AM 73.4 °F 69.8 °F 88% 30.10 in 10.0 mi South 16.1 mph 23.0 mph N/A   Overcast
9:53 AM 75.9 °F 69.1 °F 79% 30.09 in - South 12.7 mph 25.3 mph 0.01 in   Unknown
9:55 AM 75.2 °F 69.8 °F 83% 30.10 in 10.0 mi South 11.5 mph 24.2 mph N/A   Overcast
10:15 AM 75.2 °F 69.8 °F 83% 30.10 in 10.0 mi South 18.4 mph 25.3 mph N/A   Overcast
10:35 AM 77.0 °F 69.8 °F 78% 30.11 in 10.0 mi South 16.1 mph 21.9 mph N/A   Overcast
10:53 AM 79.0 °F 69.1 °F 72% 30.09 in - South 20.7 mph 28.8 mph N/A   Unknown
10:55 AM 77.0 °F 69.8 °F 78% 30.11 in 10.0 mi South 16.1 mph 23.0 mph N/A   Overcast
11:15 AM 77.0 °F 69.8 °F 78% 30.10 in 10.0 mi South 12.7 mph 24.2 mph N/A   Mostly Cloudy
11:35 AM 78.8 °F 69.8 °F 74% 30.10 in 10.0 mi South 17.3 mph 25.3 mph N/A   Overcast
11:53 AM 79.0 °F 69.1 °F 72% 30.09 in - South 18.4 mph 27.6 mph N/A   Unknown
11:55 AM 77.0 °F 68.0 °F 74% 30.10 in 10.0 mi SSW 15.0 mph 29.9 mph N/A   Overcast
12:15 PM 77.0 °F 68.0 °F 74% 30.10 in 10.0 mi South 16.1 mph 25.3 mph N/A   Overcast
12:35 PM 77.0 °F 69.8 °F 78% 30.10 in 10.0 mi South 13.8 mph 23.0 mph N/A   Overcast
12:53 PM 78.1 °F 69.1 °F 74% 30.07 in - South 15.0 mph 26.5 mph N/A   Unknown
12:55 PM 77.0 °F 69.8 °F 78% 30.09 in 10.0 mi South 10.4 mph 26.5 mph N/A   Overcast
1:15 PM 77.0 °F 69.8 °F 78% 30.08 in 10.0 mi SSW 16.1 mph 24.2 mph N/A   Overcast
1:35 PM 77.0 °F 69.8 °F 78% 30.08 in 10.0 mi South 15.0 mph 24.2 mph N/A   Overcast
1:53 PM 78.1 °F 69.1 °F 74% 30.06 in - South 13.8 mph 21.9 mph N/A   Unknown
1:55 PM 77.0 °F 69.8 °F 78% 30.08 in 10.0 mi South 15.0 mph 19.6 mph N/A   Overcast
2:15 PM 77.0 °F 69.8 °F 78% 30.07 in 10.0 mi South 16.1 mph 24.2 mph N/A   Mostly Cloudy
2:35 PM 78.8 °F 69.8 °F 74% 30.06 in 10.0 mi South 16.1 mph 24.2 mph N/A   Overcast
2:53 PM 79.0 °F 69.1 °F 72% 30.05 in - South 18.4 mph 27.6 mph N/A   Unknown
2:55 PM 77.0 °F 69.8 °F 78% 30.07 in 10.0 mi South 12.7 mph 21.9 mph N/A   Mostly Cloudy
3:15 PM 77.0 °F 69.8 °F 78% 30.07 in 10.0 mi South 8.1 mph 21.9 mph N/A   Overcast
3:35 PM 78.8 °F 69.8 °F 74% 30.06 in 10.0 mi South 12.7 mph 17.3 mph N/A   Mostly Cloudy
3:53 PM 79.0 °F 69.1 °F 72% 30.05 in - South 15.0 mph 23.0 mph N/A   Unknown
3:55 PM 77.0 °F 69.8 °F 78% 30.07 in 10.0 mi South 15.0 mph 21.9 mph N/A   Mostly Cloudy
4:15 PM 78.8 °F 69.8 °F 74% 30.07 in 10.0 mi South 11.5 mph 16.1 mph N/A   Overcast
4:35 PM 77.0 °F 69.8 °F 78% 30.07 in 10.0 mi South 9.2 mph 17.3 mph N/A   Mostly Cloudy
4:53 PM 77.0 °F 69.1 °F 76% 30.06 in - South 11.5 mph 17.3 mph N/A   Unknown
4:55 PM 77.0 °F 69.8 °F 78% 30.08 in 10.0 mi SSW 10.4 mph 17.3 mph N/A   Mostly Cloudy
5:15 PM 75.2 °F 69.8 °F 83% 30.08 in 10.0 mi South 12.7 mph 19.6 mph N/A   Overcast
5:35 PM 73.4 °F 69.8 °F 88% 30.08 in 7.0 mi South 8.1 mph - N/A   Overcast
5:53 PM 75.0 °F 69.1 °F 82% 30.06 in - South 10.4 mph - N/A   Unknown
5:55 PM 73.4 °F 69.8 °F 88% 30.08 in 10.0 mi South 9.2 mph - N/A   Overcast
6:15 PM 73.4 °F 69.8 °F 88% 30.08 in 10.0 mi South 9.2 mph - N/A   Overcast
6:35 PM 73.4 °F 69.8 °F 88% 30.09 in 10.0 mi South 8.1 mph - N/A   Overcast
6:53 PM 73.9 °F 68.0 °F 82% 30.07 in - South 8.1 mph - N/A   Unknown
6:55 PM 73.4 °F 68.0 °F 83% 30.09 in 10.0 mi South 6.9 mph - N/A   Mostly Cloudy
7:15 PM 71.6 °F 68.0 °F 88% 30.09 in 10.0 mi South 9.2 mph - N/A   Mostly Cloudy
7:35 PM 73.4 °F 68.0 °F 83% 30.09 in 10.0 mi South 8.1 mph - N/A   Scattered Clouds
7:53 PM 73.9 °F 68.0 °F 82% 30.08 in - South 10.4 mph - N/A   Unknown
7:55 PM 71.6 °F 68.0 °F 88% 30.10 in 10.0 mi South 9.2 mph - N/A   Clear
8:15 PM 71.6 °F 68.0 °F 88% 30.10 in 10.0 mi South 9.2 mph - N/A   Clear
8:35 PM 71.6 °F 68.0 °F 88% 30.10 in 7.0 mi South 10.4 mph - N/A   Clear
8:53 PM 73.0 °F 68.0 °F 84% 30.09 in - South 6.9 mph - N/A   Unknown
8:55 PM 71.6 °F 68.0 °F 88% 30.10 in 10.0 mi South 6.9 mph - N/A   Clear
9:15 PM 71.6 °F 68.0 °F 88% 30.11 in 7.0 mi South 6.9 mph - N/A   Clear
9:35 PM 71.6 °F 68.0 °F 88% 30.11 in 7.0 mi South 6.9 mph - N/A   Clear
9:53 PM 73.0 °F 68.0 °F 84% 30.09 in - South 5.8 mph - N/A   Unknown
9:55 PM 71.6 °F 68.0 °F 88% 30.11 in 7.0 mi South 5.8 mph - N/A   Clear
10:15 PM 71.6 °F 68.0 °F 88% 30.12 in 7.0 mi SSW 5.8 mph - N/A   Clear
10:35 PM 71.6 °F 68.0 °F 88% 30.13 in 7.0 mi SSW 8.1 mph - N/A   Scattered Clouds
10:53 PM 72.0 °F 68.0 °F 87% 30.11 in - South 6.9 mph - N/A   Unknown
10:55 PM 71.6 °F 68.0 °F 88% 30.13 in 7.0 mi South 5.8 mph - N/A   Mostly Cloudy
11:15 PM 71.6 °F 68.0 °F 88% 30.12 in 7.0 mi South 6.9 mph - N/A   Overcast
11:35 PM 71.6 °F 68.0 °F 88% 30.12 in 7.0 mi South 9.2 mph - N/A   Overcast
11:53 PM 72.0 °F 68.0 °F 87% 30.10 in - South 9.2 mph - N/A   Unknown
11:55 PM 71.6 °F 68.0 °F 88% 30.11 in 7.0 mi South 10.4 mph - N/A   Mostly Cloudy